Change the Weather History Date:

Friday, September 16, 2011

  Actual Average Record
Temperature  
Mean Temperature 42 °F -  
Max Temperature 59 °F 67 °F 80 °F (1991)
Min Temperature 26 °F 43 °F 26 °F (2011)
Degree Days  
Heating Degree Days 22    
Moisture  
Dew Point 30 °F    
Average Humidity 67    
Maximum Humidity 100    
Minimum Humidity 31    
Precipitation  
Precipitation 0.00 in - - ()
Sea Level Pressure  
Sea Level Pressure 30.32 in    
Wind  
Wind Speed 2 mph (SW)    
Max Wind Speed 10 mph    
Max Gust Speed 21 mph    
Visibility 10 miles    
Events      
Averages and records for this station are not official NWS values.
T = Trace of Precipitation, MM = Missing Value Source: NWS Daily Summary

Daily Weather History Graph

Daily Weather History Graph

Search for Another Location

Airport or City:

Trip Planner

Search our weather history database for the weather conditions in past years. The results will help you decide how hot, cold, wet, or windy it might be!

Date:

Astronomy

Sep. 16, 2011 Rise Set
Actual Time 6:36 AM CDT 7:06 PM CDT
Civil Twilight 6:06 AM CDT 7:36 PM CDT
Nautical Twilight 5:30 AM CDT 8:12 PM CDT
Astronomical Twilight 4:53 AM CDT 8:48 PM CDT
Moon 8:38 PM CDT (9/16) 10:59 AM CDT (9/16)
Length of Visible Light 13h 30m
Length of Day
12h 30m
Waning Gibbous, 84% of the Moon is Illuminated
Sep 16
Waning Gibbous
Sep 20
Last Quarter
Sep 27
New
Oct 3
First Quarter
Oct 11
Full

Hourly Weather History & Observations

Time (CDT) Temp. Windchill Dew Point Humidity Pressure Visibility Wind Dir Wind Speed Gust Speed Precip Events Conditions
12:15 AM 29.5 °F - 29.5 °F 100% 30.34 in 2.5 mi Calm Calm - N/A   Clear
12:35 AM 29.3 °F - 29.5 °F 100% 30.34 in 10.0 mi Calm Calm - N/A   Clear
12:55 AM - - - N/A% 30.34 in 7.0 mi Calm Calm - N/A   Clear
1:15 AM 28.9 °F - 29.1 °F 100% 30.34 in 7.0 mi Calm Calm - N/A   Clear
1:35 AM 28.9 °F - 29.1 °F 100% 30.34 in 10.0 mi Calm Calm - N/A   Clear
1:55 AM 28.8 °F - 28.9 °F 100% 30.34 in 10.0 mi Calm Calm - N/A   Clear
2:15 AM 28.4 °F - 28.6 °F 100% 30.34 in 10.0 mi Calm Calm - N/A   Clear
2:35 AM 28.4 °F - 28.4 °F 100% 30.34 in 10.0 mi Calm Calm - N/A   Clear
2:55 AM 28.2 °F - 28.2 °F 100% 30.33 in 10.0 mi Calm Calm - N/A   Clear
3:15 AM 28.2 °F - 28.4 °F 100% 30.34 in 10.0 mi Calm Calm - N/A   Clear
3:35 AM 27.7 °F - 27.9 °F 100% 30.34 in 10.0 mi Calm Calm - N/A   Clear
4:15 AM - - - N/A% 30.34 in 10.0 mi Calm Calm - N/A   Clear
4:35 AM 26.8 °F - 27.0 °F 100% 30.34 in 10.0 mi Calm Calm - N/A   Clear
4:55 AM 26.8 °F - 26.8 °F 100% 30.34 in 10.0 mi Calm Calm - N/A   Clear
5:15 AM 27.0 °F - 27.0 °F 100% 30.34 in 10.0 mi Calm Calm - N/A   Clear
5:35 AM 26.8 °F - 27.0 °F 100% 30.34 in 10.0 mi Calm Calm - N/A   Clear
6:15 AM 26.1 °F - 26.2 °F 100% 30.34 in 10.0 mi Calm Calm - N/A   Clear
6:35 AM 26.4 °F - 26.4 °F 100% 30.35 in 10.0 mi Calm Calm - N/A   Clear
6:55 AM 26.2 °F - 26.2 °F 100% 30.35 in 7.0 mi Calm Calm - N/A   Mostly Cloudy
7:15 AM 26.6 °F - 26.6 °F 100% 30.35 in 3.0 mi Calm Calm - N/A   Overcast
7:35 AM 27.7 °F - 27.7 °F 100% 30.36 in 10.0 mi Calm Calm - N/A   Mostly Cloudy
7:55 AM 29.3 °F - 29.5 °F 100% 30.36 in 10.0 mi Calm Calm - N/A   Scattered Clouds
8:15 AM 33.1 °F - 33.3 °F 100% 30.36 in 10.0 mi Calm Calm - N/A   Clear
8:35 AM 37.6 °F - 37.2 °F 99% 30.36 in 10.0 mi Calm Calm - N/A   Clear
9:15 AM 44.4 °F 42.9 °F 36.0 °F 72% 30.36 in 10.0 mi SSW 3.5 mph - N/A   Clear
9:35 AM 46.4 °F 45.2 °F 35.8 °F 67% 30.36 in 10.0 mi South 3.5 mph - N/A   Clear
9:55 AM 48.9 °F - 35.1 °F 59% 30.36 in 10.0 mi Calm Calm - N/A   Clear
10:15 AM 50.7 °F - 32.9 °F 51% 30.36 in 10.0 mi SSW 3.5 mph - N/A   Clear
10:35 AM 52.0 °F - 30.0 °F 43% 30.36 in 10.0 mi South 3.5 mph - N/A   Clear
11:15 AM 53.8 °F - 28.6 °F 38% 30.35 in 10.0 mi SW 10.4 mph - N/A   Clear
11:35 AM 54.0 °F - 28.8 °F 38% 30.35 in 10.0 mi WSW 5.8 mph - N/A   Clear
11:55 AM 54.7 °F - 28.9 °F 37% 30.34 in 10.0 mi WSW 8.1 mph - N/A   Clear
12:15 PM 55.2 °F - 27.9 °F 35% 30.34 in 10.0 mi WSW 10.4 mph - N/A   Clear
12:35 PM 55.8 °F - 27.0 °F 33% 30.33 in 10.0 mi South 8.1 mph - N/A   Clear
12:55 PM 56.1 °F - 26.6 °F 32% 30.33 in 10.0 mi SSW 8.1 mph - N/A   Clear
1:15 PM 57.2 °F - 28.2 °F 33% 30.32 in 10.0 mi South 9.2 mph - N/A   Clear
1:35 PM 57.9 °F - 28.2 °F 32% 30.32 in 10.0 mi WSW 6.9 mph - N/A   Clear
1:55 PM 57.7 °F - 28.6 °F 33% 30.31 in 10.0 mi SW 4.6 mph 20.7 mph N/A   Scattered Clouds
2:15 PM 57.9 °F - 28.8 °F 33% 30.30 in 10.0 mi South 5.8 mph - N/A   Clear
3:15 PM 59.2 °F - 28.8 °F 31% 30.28 in 10.0 mi West 6.9 mph - N/A   Clear
3:55 PM 58.8 °F - 29.7 °F 33% 30.28 in 10.0 mi West 8.1 mph - N/A   Clear
4:15 PM 58.3 °F - 28.8 °F 33% 30.28 in 10.0 mi WSW 6.9 mph - N/A   Clear
4:35 PM 58.3 °F - 28.2 °F 32% 30.27 in 10.0 mi WSW 3.5 mph - N/A   Clear
4:55 PM 58.1 °F - 29.3 °F 33% 30.27 in 10.0 mi SW 6.9 mph - N/A   Clear
5:15 PM 57.7 °F - 28.9 °F 33% 30.27 in 10.0 mi South 5.8 mph - N/A   Clear
5:55 PM 56.3 °F - 29.5 °F 36% 30.27 in 10.0 mi SW 4.6 mph - N/A   Clear
6:15 PM 55.4 °F - 30.6 °F 39% 30.26 in 10.0 mi SW 4.6 mph - N/A   Clear
6:35 PM 54.1 °F - 31.6 °F 42% 30.26 in 10.0 mi Calm Calm - N/A   Clear
6:55 PM 52.7 °F - 32.2 °F 46% 30.26 in 10.0 mi SW 3.5 mph - N/A   Clear
7:15 PM 51.1 °F - 32.9 °F 50% 30.26 in 10.0 mi SSW 3.5 mph - N/A   Clear
7:35 PM 49.8 °F - 33.8 °F 54% 30.26 in 10.0 mi Calm Calm - N/A   Clear
7:55 PM 47.8 °F - 34.3 °F 60% 30.27 in 10.0 mi South 4.6 mph - N/A   Clear
8:15 PM 46.6 °F - 33.6 °F 61% 30.27 in 10.0 mi SSW 3.5 mph - N/A   Clear
8:35 PM 45.0 °F - 33.6 °F 64% 30.28 in 10.0 mi Calm Calm - N/A   Clear
8:55 PM 41.5 °F - 33.8 °F 74% 30.28 in 10.0 mi Calm Calm - N/A   Clear
9:15 PM 41.9 °F - 34.0 °F 73% 30.28 in 10.0 mi Calm Calm - N/A   Clear
9:35 PM 42.4 °F - 33.8 °F 71% 30.29 in 10.0 mi Calm Calm - N/A   Clear
9:55 PM 40.3 °F - 33.4 °F 77% 30.29 in 10.0 mi Calm Calm - N/A   Clear
10:15 PM 37.8 °F - 33.3 °F 84% 30.29 in 10.0 mi Calm Calm - N/A   Clear
10:35 PM 36.5 °F - 34.5 °F 93% 30.30 in 10.0 mi Calm Calm - N/A   Clear
10:55 PM 36.0 °F - 33.3 °F 90% 30.29 in 10.0 mi Calm Calm - N/A   Clear
11:35 PM 33.8 °F - 33.6 °F 99% 30.29 in 10.0 mi Calm Calm - N/A   Clear
11:55 PM 33.8 °F - 34.0 °F 100% 30.29 in 10.0 mi Calm Calm - N/A   Clear